M0JGD Weather Reports


time (UTC)temp
C
wind
direction
speed
KPH
gust
KPH
rain 1hr
cm
rain 24hr
cm
rain mn
cm
humidity
%
barometer
mb
20260507224556 6 0 0.0 0.0 0.00 0.00 0.00 84 1014.0
20260507223100 6 0 0.0 0.0 0.00 0.00 0.00 84 1014.1
20260507221557 7 0 0.0 0.0 0.00 0.00 0.00 84 1014.0
20260507220057 7 0 0.0 0.0 0.00 0.00 0.00 84 1014.1
20260507214617 7 0 0.0 0.0 0.00 0.00 0.00 84 1014.4
20260507213106 7 0 0.0 0.0 0.00 0.00 0.00 83 1014.5
20260507211612 7 0 0.0 0.0 0.00 0.00 0.00 79 1014.5
20260507210056 8 0 0.0 0.0 0.00 0.00 0.00 79 1014.4
20260507204602 8 0 0.0 0.0 0.00 0.00 0.00 78 1014.3
20260507203101 8 0 0.0 0.0 0.00 0.00 0.00 78 1014.2
20260507201555 8 0 0.0 0.0 0.00 0.00 0.00 76 1014.1
20260507200054 9 0 0.0 0.0 0.00 0.00 0.00 73 1013.7
20260507194626 10 0 0.0 0.0 0.00 0.00 0.00 70 1013.5
20260507193056 11 0 0.0 0.0 0.00 0.00 0.00 69 1013.4
20260507191554 11 0 0.0 0.0 0.00 0.00 0.00 68 1013.3
20260507190054 12 0 0.0 0.0 0.00 0.00 0.00 67 1013.4
20260507184605 12 0 0.0 0.0 0.00 0.00 0.00 69 1013.4
20260507183058 13 0 0.0 0.0 0.00 0.00 0.00 67 1013.4
20260507181552 13 0 0.0 0.0 0.00 0.00 0.00 66 1013.4
20260507180100 12 0 0.0 0.0 0.00 0.00 0.00 65 1013.3
20260507174556 12 0 0.0 0.0 0.00 0.00 0.00 63 1013.3
20260507173053 12 0 0.0 0.0 0.00 0.00 0.00 62 1013.4
20260507171553 12 0 0.0 0.0 0.00 0.00 0.00 62 1013.4
20260507170054 13 0 0.0 3.2 0.00 0.00 0.00 63 1013.4
20260507164607 13 207 0.0 3.2 0.00 0.00 0.00 62 1013.2
20260507163103 13 0 1.6 6.4 0.00 0.00 0.00 60 1013.2
20260507161603 13 207 1.6 4.8 0.00 0.00 0.00 61 1013.4
20260507160055 13 210 0.0 4.8 0.00 0.00 0.00 63 1013.4
20260507154559 13 210 0.0 6.4 0.00 0.00 0.00 63 1013.4
20260507153052 13 178 1.6 8.0 0.00 0.00 0.00 63 1013.5
20260507151554 14 184 0.0 8.0 0.00 0.00 0.00 62 1013.5
20260507150057 15 213 3.2 6.4 0.00 0.00 0.00 58 1013.4
20260507144559 16 0 1.6 8.0 0.00 0.00 0.00 57 1013.4
20260507143102 15 201 1.6 6.4 0.00 0.00 0.00 59 1013.5
20260507141554 16 190 0.0 4.8 0.00 0.00 0.00 57 1013.6
20260507140054 16 204 0.0 4.8 0.00 0.00 0.00 59 1013.6
20260507134557 14 0 0.0 4.8 0.00 0.00 0.00 63 1013.5
20260507133057 13 0 1.6 4.8 0.00 0.00 0.00 62 1013.6
20260507131611 13 0 0.0 0.0 0.00 0.00 0.00 63 1013.7
20260507130057 13 0 0.0 3.2 0.00 0.00 0.00 63 1013.6
20260507124606 13 0 0.0 3.2 0.00 0.00 0.00 61 1013.8
20260507123056 13 0 0.0 0.0 0.00 0.00 0.00 61 1013.8
20260507121557 14 0 0.0 3.2 0.00 0.00 0.00 60 1013.8
20260507120056 15 0 0.0 3.2 0.00 0.00 0.00 57 1013.9
20260507114558 16 0 0.0 3.2 0.00 0.00 0.00 54 1013.7
20260507113100 17 0 0.0 4.8 0.00 0.00 0.00 51 1013.8
20260507111557 16 0 0.0 3.2 0.00 0.00 0.00 53 1013.7
20260507110057 16 0 0.0 4.8 0.00 0.00 0.00 53 1013.9
20260507104553 15 0 0.0 3.2 0.00 0.00 0.00 56 1014.0
20260507103054 15 194 0.0 6.4 0.00 0.00 0.00 60 1014.0
20260507101556 15 0 0.0 4.8 0.00 0.00 0.00 56 1013.9
20260507100056 15 0 0.0 4.8 0.00 0.00 0.00 54 1014.1
20260507094554 15 0 0.0 8.0 0.00 0.00 0.00 56 1014.1
20260507093056 15 0 0.0 4.8 0.00 0.00 0.00 58 1014.0
20260507091551 13 0 0.0 3.2 0.00 0.00 0.00 68 1013.8
20260507090054 12 0 0.0 3.2 0.00 0.00 0.00 76 1014.0
20260507084553 11 0 0.0 0.0 0.00 0.00 0.00 77 1014.1
20260507083053 10 0 0.0 0.0 0.00 0.00 0.00 82 1013.9
20260507081553 10 0 0.0 3.2 0.00 0.00 0.00 86 1013.8
20260507080113 9 0 0.0 0.0 0.00 0.00 0.00 88 1013.9
20260507074552 8 0 0.0 3.2 0.00 0.00 0.00 90 1013.8
20260507073112 8 0 0.0 1.6 0.00 0.00 0.00 92 1013.8
20260507071609 7 0 0.0 0.0 0.00 0.00 0.00 92 1013.8
20260507070056 6 0 0.0 0.0 0.00 0.00 0.00 92 1013.6
20260507064554 5 0 0.0 0.0 0.00 0.00 0.00 91 1013.5
20260507063057 5 0 0.0 0.0 0.00 0.00 0.00 91 1013.5
20260507061559 5 0 0.0 0.0 0.00 0.00 0.00 91 1013.5
20260507060054 5 0 0.0 0.0 0.00 0.00 0.00 91 1013.5
20260507054552 4 0 0.0 0.0 0.00 0.00 0.00 90 1013.4
20260507053121 4 0 0.0 0.0 0.00 0.00 0.00 90 1013.3
20260507051601 4 0 0.0 0.0 0.00 0.00 0.00 89 1013.2
20260507050108 4 0 0.0 0.0 0.00 0.00 0.00 89 1013.1
20260507044559 4 0 0.0 0.0 0.00 0.00 0.00 89 1013.3
20260507043057 5 0 0.0 0.0 0.00 0.00 0.00 89 1013.1
20260507041555 4 0 0.0 0.0 0.00 0.00 0.00 88 1013.0
20260507034556 5 0 0.0 0.0 0.00 0.00 0.00 88 1013.1
20260507033055 5 0 0.0 1.6 0.00 0.00 0.00 88 1013.0
20260507031556 5 0 0.0 0.0 0.00 0.00 0.00 87 1012.9
20260507030057 5 0 0.0 0.0 0.00 0.00 0.00 87 1012.9
20260507024604 6 0 0.0 0.0 0.00 0.00 0.00 86 1012.9
20260507023056 6 0 0.0 0.0 0.00 0.00 0.00 86 1013.0
20260507021557 6 0 0.0 0.0 0.00 0.00 0.00 86 1012.8
20260507020109 6 0 0.0 0.0 0.00 0.00 0.00 85 1012.6
20260507014612 7 0 0.0 0.0 0.00 0.00 0.00 84 1012.5
20260507013056 7 0 0.0 0.0 0.00 0.00 0.00 84 1012.5
20260507011610 7 0 0.0 0.0 0.00 0.00 0.00 84 1012.6
20260507010113 8 0 0.0 0.0 0.00 0.00 0.00 84 1012.6
20260507004615 8 0 0.0 0.0 0.00 0.00 0.00 82 1012.7
20260507003102 8 0 0.0 0.0 0.00 0.00 0.00 81 1012.5
20260507001604 8 0 0.0 0.0 0.00 0.00 0.00 80 1012.8
20260507000056 8 0 0.0 0.0 0.00 0.00 0.00 79 1012.7
20260506234557 8 0 0.0 0.0 0.00 0.00 0.00 78 1012.7
20260506233058 9 0 0.0 0.0 0.00 0.00 0.00 77 1012.6
20260506231553 9 0 0.0 0.0 0.00 0.00 0.00 76 1012.6
20260506230104 9 0 0.0 0.0 0.00 0.00 0.00 76 1012.5